�N����,����,�~����,�C��,���x,�C��,����,���ϕ���,�ő�u�ԕ���,�ő厞����,���˗�,�I�_���x,�n�����x,�ő啗���N��,DTYPE
"18/12/09","00:10",0.0,3.3,65.8,1018.7,278.7,2.3,4.7,314.8,0.00,-2.4,8.8,"00:06:50",1
"18/12/09","00:20",0.0,3.1,66.4,1018.7,281.0,2.5,7.2,299.0,0.00,-2.5,8.7,"00:10:24",1
"18/12/09","00:30",0.0,3.2,67.1,1018.5,275.7,2.6,4.5,304.0,0.00,-2.3,8.9,"00:27:24",1
"18/12/09","00:40",0.0,3.4,66.7,1018.5,274.0,2.8,6.0,263.6,0.00,-2.2,9.0,"00:34:20",1
"18/12/09","00:50",0.0,3.3,66.9,1018.5,272.0,3.5,7.0,307.4,0.00,-2.2,8.7,"00:46:20",1
"18/12/09","01:00",0.0,3.3,67.7,1018.5,275.1,2.5,5.8,264.6,0.00,-2.1,8.9,"00:53:52",1
"18/12/09","01:10",0.0,3.2,68.3,1018.2,262.3,2.8,6.3,262.9,0.00,-2.0,8.7,"01:05:20",1
"18/12/09","01:20",0.0,3.2,68.6,1018.2,274.0,2.6,5.9,316.8,0.00,-2.0,8.8,"01:15:12",1
"18/12/09","01:30",0.0,3.2,69.0,1018.2,271.6,2.5,4.9,250.4,0.00,-1.9,8.7,"01:21:46",1
"18/12/09","01:40",0.0,3.3,69.7,1018.7,281.6,2.2,3.9,302.1,0.00,-1.7,8.9,"01:37:28",1
"18/12/09","01:50",0.0,3.3,69.8,1018.7,269.6,2.7,4.9,237.8,0.00,-1.6,8.7,"01:49:16",1
"18/12/09","02:00",0.0,3.2,70.0,1018.7,271.8,2.6,4.2,261.8,0.00,-1.7,8.7,"01:58:28",1
"18/12/09","02:10",0.0,3.1,70.5,1018.5,274.3,2.7,6.3,304.1,0.00,-1.7,8.6,"02:08:56",1
"18/12/09","02:20",0.0,3.1,71.2,1019.0,288.6,2.1,4.0,295.1,0.00,-1.6,8.7,"02:10:24",1
"18/12/09","02:30",0.0,3.1,71.7,1018.7,288.2,2.6,4.3,265.3,0.00,-1.5,8.8,"02:25:44",1
"18/12/09","02:40",0.0,3.1,72.3,1019.0,292.7,3.0,6.2,323.1,0.00,-1.4,8.7,"02:38:24",1
"18/12/09","02:50",0.0,3.1,72.8,1019.0,278.6,2.3,4.9,301.1,0.00,-1.3,8.5,"02:40:48",1
"18/12/09","03:00",0.0,3.1,73.1,1019.0,280.0,2.5,4.0,268.0,0.00,-1.2,8.7,"02:52:16",1
"18/12/09","03:10",0.0,3.1,73.6,1019.0,282.3,2.6,4.5,265.7,0.00,-1.1,8.6,"03:02:00",1
"18/12/09","03:20",0.0,3.0,74.0,1019.0,271.2,2.7,4.1,256.9,0.00,-1.1,8.8,"03:11:52",1
"18/12/09","03:30",0.0,2.8,75.1,1019.0,280.0,2.5,4.3,244.2,0.00,-1.1,8.5,"03:21:20",1
"18/12/09","03:40",0.0,2.9,75.9,1018.5,278.0,2.6,6.7,314.5,0.00,-0.9,8.6,"03:35:04",1
"18/12/09","03:50",0.0,2.8,76.7,1019.2,279.4,2.5,3.7,272.8,0.00,-0.8,8.6,"03:44:00",1
"18/12/09","04:00",0.0,2.6,77.7,1018.7,280.8,2.3,4.7,322.4,0.00,-0.9,8.6,"03:52:48",1
"18/12/09","04:10",0.0,2.4,79.1,1019.0,278.0,2.6,4.2,249.9,0.00,-0.8,8.5,"04:06:10",1
"18/12/09","04:20",0.0,2.2,80.1,1018.7,279.6,2.6,5.4,326.7,0.00,-0.8,8.2,"04:17:28",1
"18/12/09","04:30",0.0,2.2,81.0,1018.7,285.9,2.7,4.4,308.6,0.00,-0.7,8.5,"04:26:08",1
"18/12/09","04:40",0.0,2.2,81.7,1018.2,299.1,3.0,6.4,328.6,0.00,-0.6,8.4,"04:39:40",1
"18/12/09","04:50",0.0,2.3,81.9,1019.0,299.5,3.1,5.7,321.6,0.00,-0.4,8.4,"04:48:32",1
"18/12/09","05:00",0.0,2.2,81.9,1018.5,297.0,3.1,6.5,319.4,0.00,-0.5,8.4,"04:53:12",1
"18/12/09","05:10",0.0,2.3,82.2,1018.5,294.3,2.7,4.7,332.8,0.00,-0.4,8.4,"05:03:06",1
"18/12/09","05:20",0.0,2.3,81.9,1018.7,303.2,3.2,6.0,318.8,0.00,-0.4,8.2,"05:17:40",1
"18/12/09","05:30",0.0,2.4,81.7,1019.0,299.7,2.8,6.0,324.9,0.00,-0.4,8.3,"05:20:08",1
"18/12/09","05:40",0.0,2.4,81.6,1019.0,291.8,2.2,4.1,332.7,0.00,-0.4,8.3,"05:35:12",1
"18/12/09","05:50",0.0,2.4,82.1,1019.0,289.3,2.0,4.4,330.5,0.00,-0.3,8.2,"05:44:00",1
"18/12/09","06:00",0.0,2.4,82.0,1019.0,293.9,2.7,5.9,327.5,0.00,-0.3,8.3,"05:55:04",1
"18/12/09","06:10",0.0,2.4,82.0,1019.7,300.7,2.5,5.2,331.3,0.00,-0.3,8.2,"06:01:20",1
"18/12/09","06:20",0.0,2.5,81.9,1019.7,292.3,2.3,3.9,323.8,0.00,-0.2,8.4,"06:14:24",1
"18/12/09","06:30",0.0,2.5,81.8,1019.7,302.8,1.8,4.3,329.9,0.00,-0.2,8.1,"06:28:56",1
"18/12/09","06:40",0.0,2.5,81.7,1020.1,292.0,2.1,3.9,327.0,0.00,-0.3,8.2,"06:36:00",1
"18/12/09","06:50",0.0,2.6,81.5,1019.7,262.7,1.6,3.5,258.2,0.00,-0.2,8.2,"06:41:52",1
"18/12/09","07:00",0.0,2.6,81.3,1020.1,275.0,0.8,2.9,317.7,0.00,-0.2,8.1,"06:58:24",1
"18/12/09","07:10",0.0,2.6,81.2,1020.4,283.7,1.2,3.2,329.3,0.00,-0.3,8.2,"07:02:08",1
"18/12/09","07:20",0.0,2.6,81.4,1020.4,287.8,1.6,2.8,268.9,0.00,-0.2,8.2,"07:11:28",1
"18/12/09","07:30",0.0,2.6,81.5,1020.4,290.8,1.7,3.9,315.5,0.00,-0.2,8.3,"07:25:44",1
"18/12/09","07:40",0.0,2.7,81.4,1020.8,276.5,2.3,5.9,300.3,0.00,-0.1,8.3,"07:37:20",1
"18/12/09","07:50",0.0,2.7,81.4,1020.6,284.5,2.1,5.5,286.1,0.00,-0.1,8.2,"07:44:16",1
"18/12/09","08:00",0.0,2.8,81.2,1020.8,273.2,2.1,3.7,300.3,0.01,-0.1,8.2,"07:51:52",1
"18/12/09","08:10",0.0,3.0,80.9,1021.3,277.6,2.1,3.5,309.3,0.02,0.1,8.3,"08:00:16",1
"18/12/09","08:20",0.0,3.1,80.5,1021.5,285.8,1.8,3.4,340.4,0.02,0.1,8.2,"08:15:36",1
"18/12/09","08:30",0.0,3.4,79.9,1021.5,258.6,2.1,3.4,240.8,0.04,0.3,8.1,"08:25:44",1
"18/12/09","08:40",0.0,3.6,79.2,1021.3,258.1,1.5,4.1,241.6,0.07,0.4,8.4,"08:37:52",1
"18/12/09","08:50",0.0,3.9,77.6,1021.8,241.1,1.2,2.4,201.3,0.10,0.4,8.4,"08:40:48",1
"18/12/09","09:00",0.0,4.3,76.7,1022.0,255.9,1.3,2.2,252.7,0.14,0.6,8.5,"08:57:52",1
"18/12/09","09:10",0.0,4.9,74.0,1022.0,288.3,2.7,5.2,324.7,0.21,0.7,8.5,"09:05:16",1
"18/12/09","09:20",0.0,5.0,74.1,1022.0,276.2,2.5,4.2,307.7,0.14,0.8,8.7,"09:11:14",1
"18/12/09","09:30",0.0,5.3,72.9,1022.3,318.5,3.6,7.8,330.3,0.22,0.9,8.6,"09:29:06",1
"18/12/09","09:40",0.0,5.3,72.4,1022.5,317.7,4.0,8.8,341.9,0.23,0.8,8.9,"09:39:22",1
"18/12/09","09:50",0.0,5.4,71.2,1023.0,303.3,3.7,6.4,330.5,0.25,0.6,8.8,"09:47:34",1
"18/12/09","10:00",0.0,5.7,72.1,1022.7,298.8,3.4,6.4,305.5,0.15,1.1,9.0,"09:54:18",1
"18/12/09","10:10",0.0,5.9,70.0,1023.0,300.7,3.2,6.7,334.6,0.22,0.9,9.1,"10:04:30",1
"18/12/09","10:20",0.0,5.7,70.2,1022.7,289.2,3.0,5.7,305.0,0.19,0.7,9.3,"10:10:10",1
"18/12/09","10:30",0.0,5.9,69.8,1023.0,290.4,3.1,5.0,325.6,0.19,0.9,9.3,"10:22:32",1
"18/12/09","10:40",0.0,6.0,70.3,1022.7,288.8,3.1,9.4,340.9,0.22,1.0,9.4,"10:35:10",1
"18/12/09","10:50",0.0,5.9,68.8,1022.7,317.6,3.4,5.5,338.5,0.23,0.7,9.5,"10:46:34",1
"18/12/09","11:00",0.0,6.2,69.8,1022.7,323.1,3.6,8.0,343.3,0.25,1.1,9.6,"10:56:24",1
"18/12/09","11:10",0.0,6.4,69.6,1022.5,329.4,3.1,5.7,337.9,0.28,1.3,9.7,"11:00:08",1
"18/12/09","11:20",0.0,6.3,67.9,1022.7,323.8,4.5,9.5,343.0,0.29,0.9,9.9,"11:12:48",1
"18/12/09","11:30",0.0,6.4,69.3,1022.5,298.3,3.6,7.3,343.4,0.27,1.2,9.9,"11:24:48",1
"18/12/09","11:40",0.0,6.1,69.9,1022.5,292.4,3.2,6.5,351.9,0.19,1.1,9.8,"11:31:04",1
"18/12/09","11:50",0.0,6.6,70.0,1022.3,290.8,3.6,5.9,300.7,0.24,1.6,10.0,"11:40:32",1
"18/12/09","12:00",0.0,7.0,68.7,1022.3,287.6,3.0,5.4,303.7,0.32,1.7,10.2,"11:55:00",1
"18/12/09","12:10",0.0,7.1,67.3,1022.3,309.0,3.5,5.2,329.5,0.35,1.5,10.4,"12:06:24",1
"18/12/09","12:20",0.0,6.4,66.9,1022.0,306.3,3.7,8.0,334.6,0.28,0.7,10.5,"12:19:56",1
"18/12/09","12:30",0.0,6.7,67.1,1021.8,287.0,3.7,6.7,284.2,0.28,1.1,10.2,"12:24:30",1
"18/12/09","12:40",0.0,6.3,68.4,1021.8,308.3,4.2,7.3,330.9,0.18,1.0,10.2,"12:32:56",1
"18/12/09","12:50",0.0,6.2,70.1,1021.8,268.4,2.7,4.5,292.4,0.13,1.2,10.5,"12:42:48",1
"18/12/09","13:00",0.0,6.8,69.8,1021.8,282.8,2.5,4.8,264.8,0.16,1.7,10.6,"12:58:32",1
"18/12/09","13:10",0.0,6.6,69.4,1021.8,300.6,3.9,7.3,325.6,0.18,1.4,10.6,"13:09:20",1
"18/12/09","13:20",0.0,6.5,69.4,1021.3,323.8,3.4,6.0,354.0,0.15,1.3,10.7,"13:14:16",1
"18/12/09","13:30",0.0,6.6,69.0,1021.1,314.4,4.1,8.1,324.8,0.18,1.4,10.7,"13:25:52",1
"18/12/09","13:40",0.0,7.3,69.2,1021.5,288.6,3.2,7.4,333.3,0.27,2.1,10.7,"13:35:40",1
"18/12/09","13:50",0.0,7.0,68.1,1021.3,286.4,3.4,6.0,328.0,0.27,1.6,10.7,"13:42:52",1
"18/12/09","14:00",0.0,7.0,68.6,1021.3,288.6,3.0,4.7,312.2,0.18,1.7,10.8,"13:54:32",1
"18/12/09","14:10",0.0,6.7,69.6,1021.3,289.9,3.7,7.0,329.6,0.15,1.6,10.9,"14:04:02",1
"18/12/09","14:20",0.0,6.4,71.3,1021.3,291.0,4.1,7.8,324.0,0.15,1.6,10.8,"14:14:58",1
"18/12/09","14:30",0.0,6.7,70.3,1021.3,303.5,4.2,6.3,339.8,0.19,1.7,10.9,"14:25:24",1
"18/12/09","14:40",0.0,6.5,69.8,1021.1,294.6,3.6,6.5,335.1,0.13,1.4,10.8,"14:32:16",1
"18/12/09","14:50",0.0,6.6,69.7,1021.3,308.0,4.1,6.5,339.3,0.14,1.5,10.8,"14:47:54",1
"18/12/09","15:00",0.0,6.7,69.2,1021.8,321.9,3.9,5.7,328.7,0.14,1.5,10.8,"14:56:56",1
"18/12/09","15:10",0.0,6.9,68.6,1021.5,305.5,3.4,6.0,286.3,0.12,1.6,10.9,"15:06:40",1
"18/12/09","15:20",0.0,6.9,68.1,1022.0,303.3,3.4,5.8,332.5,0.08,1.5,10.7,"15:18:48",1
"18/12/09","15:30",0.0,6.4,69.2,1022.3,317.0,4.6,7.1,332.5,0.05,1.2,10.7,"15:24:14",1
"18/12/09","15:40",0.0,6.3,70.6,1021.5,315.6,4.0,8.0,338.4,0.02,1.4,10.5,"15:35:36",1
"18/12/09","15:50",0.0,6.1,71.0,1022.0,311.0,3.5,5.9,325.1,0.03,1.3,10.7,"15:46:32",1
"18/12/09","16:00",0.0,5.9,71.7,1022.0,295.4,3.2,5.0,330.1,0.01,1.2,10.7,"15:55:38",1
"18/12/09","16:10",0.0,5.8,72.5,1022.0,314.8,4.1,6.5,340.0,0.00,1.3,10.5,"16:06:00",1
"18/12/09","16:20",0.0,5.6,73.2,1022.0,304.9,3.4,6.5,333.5,0.00,1.2,10.3,"16:15:20",1
"18/12/09","16:30",0.0,5.4,74.2,1022.0,299.6,3.5,5.8,330.0,0.00,1.2,10.4,"16:27:12",1
"18/12/09","16:40",0.0,5.3,75.7,1022.0,308.4,4.2,6.7,344.0,0.00,1.4,10.1,"16:30:48",1
"18/12/09","16:50",0.0,5.3,76.3,1021.8,317.6,4.7,7.1,327.4,0.00,1.5,10.2,"16:40:56",1
"18/12/09","17:00",0.0,5.3,76.9,1022.0,320.4,5.1,7.7,332.1,0.00,1.6,10.2,"16:59:04",1
"18/12/09","17:10",0.0,5.3,77.5,1022.0,322.6,4.5,6.8,331.5,0.00,1.7,10.0,"17:08:00",1
"18/12/09","17:20",0.0,5.1,78.4,1021.8,320.1,4.2,6.5,329.9,0.00,1.7,10.0,"17:11:36",1
"18/12/09","17:30",0.0,4.9,79.2,1021.8,317.9,4.0,5.8,328.1,0.00,1.6,9.9,"17:25:20",1
"18/12/09","17:40",0.0,4.7,80.1,1022.0,309.4,4.0,5.7,317.5,0.00,1.6,9.7,"17:33:52",1
"18/12/09","17:50",0.0,4.6,81.2,1021.8,322.9,4.7,7.7,320.4,0.00,1.7,9.6,"17:48:00",1
"18/12/09","18:00",0.0,4.5,82.3,1022.0,322.3,5.1,7.4,317.1,0.00,1.8,9.4,"17:56:48",1
"18/12/09","18:10",0.0,4.4,83.0,1022.0,313.3,4.4,8.2,342.0,0.00,1.8,9.4,"18:01:52",1
"18/12/09","18:20",0.0,4.4,83.5,1022.0,326.3,4.9,7.7,338.8,0.00,1.9,9.3,"18:16:16",1
"18/12/09","18:30",0.0,4.3,84.0,1021.8,321.1,4.1,6.5,341.7,0.00,1.9,9.5,"18:24:48",1
"18/12/09","18:40",0.0,4.2,84.4,1021.8,305.1,3.4,6.0,327.5,0.00,1.8,9.2,"18:32:24",1
"18/12/09","18:50",0.0,4.0,84.8,1022.0,308.3,3.1,4.7,334.8,0.00,1.7,9.2,"18:45:20",1
"18/12/09","19:00",0.0,4.0,84.9,1022.3,286.9,2.6,5.1,301.5,0.00,1.7,9.2,"18:59:20",1
"18/12/09","19:10",0.0,4.0,84.9,1022.0,288.8,2.7,4.2,269.2,0.00,1.7,9.2,"19:02:00",1
"18/12/09","19:20",0.0,4.0,85.4,1022.0,305.9,3.4,5.4,334.1,0.00,1.8,9.3,"19:13:28",1
"18/12/09","19:30",0.0,3.9,85.5,1022.5,300.9,3.4,6.7,316.2,0.00,1.7,9.0,"19:20:56",1
"18/12/09","19:40",0.0,3.9,85.9,1022.0,292.2,3.1,4.4,312.1,0.00,1.8,8.9,"19:34:00",1
"18/12/09","19:50",0.0,3.8,86.0,1022.3,306.6,3.0,4.5,319.8,0.00,1.7,8.9,"19:46:32",1
"18/12/09","20:00",0.0,3.8,85.6,1022.5,298.4,2.6,4.9,330.9,0.00,1.7,8.7,"19:50:40",1
"18/12/09","20:10",0.0,3.8,86.1,1022.3,285.5,2.1,4.0,314.9,0.00,1.7,8.7,"20:07:04",1
"18/12/09","20:20",0.0,3.9,86.4,1023.0,318.7,3.0,7.1,320.3,0.00,1.9,8.7,"20:18:32",1
"18/12/09","20:30",0.0,3.8,86.4,1022.7,320.3,3.1,5.2,335.5,0.00,1.8,8.7,"20:23:04",1
"18/12/09","20:40",0.0,3.6,86.6,1023.0,319.7,2.8,5.1,315.9,0.00,1.6,8.7,"20:33:44",1
"18/12/09","20:50",0.0,3.7,87.3,1022.7,314.2,3.4,6.3,314.6,0.00,1.8,8.5,"20:48:48",1
"18/12/09","21:00",0.0,3.6,87.6,1022.7,321.3,3.6,6.3,336.4,0.00,1.8,8.8,"20:50:40",1
"18/12/09","21:10",0.0,3.5,87.8,1023.0,320.3,3.0,4.8,331.5,0.00,1.7,8.6,"21:05:04",1
"18/12/09","21:20",0.0,3.5,88.0,1023.0,328.9,2.8,4.3,322.0,0.00,1.7,8.5,"21:18:48",1
"18/12/09","21:30",0.0,3.5,88.3,1023.0,311.1,2.6,4.4,330.9,0.00,1.8,8.5,"21:20:02",1
"18/12/09","21:40",0.0,3.7,88.2,1023.2,315.5,3.2,7.3,325.2,0.00,2.0,8.5,"21:39:20",1
"18/12/09","21:50",0.0,3.8,88.1,1023.2,305.8,2.7,4.5,333.5,0.00,2.1,8.7,"21:42:16",1
"18/12/09","22:00",0.0,3.9,88.0,1023.2,310.9,3.1,4.8,307.1,0.00,2.1,8.3,"21:59:28",1
"18/12/09","22:10",0.0,3.8,87.9,1023.7,322.5,3.7,6.0,329.4,0.00,2.0,8.6,"22:07:16",1
"18/12/09","22:20",0.0,3.8,87.9,1023.2,320.2,3.9,5.8,308.6,0.00,2.0,8.5,"22:15:12",1
"18/12/09","22:30",0.0,3.7,87.7,1023.7,313.8,3.6,5.8,338.2,0.00,1.9,8.5,"22:25:20",1
"18/12/09","22:40",0.0,3.7,87.8,1023.4,307.7,3.1,5.1,323.0,0.00,1.9,8.3,"22:31:52",1
"18/12/09","22:50",0.0,3.6,88.0,1023.2,300.8,2.7,4.4,335.2,0.00,1.8,8.4,"22:48:40",1
"18/12/09","23:00",0.0,3.6,88.0,1023.4,325.3,3.2,6.2,331.5,0.00,1.8,8.3,"22:59:20",1
"18/12/09","23:10",0.0,3.5,87.8,1023.2,338.2,1.8,4.1,338.9,0.00,1.7,8.6,"23:08:16",1
"18/12/09","23:20",0.0,3.4,87.9,1023.7,342.5,1.7,3.9,325.3,0.00,1.6,8.4,"23:18:16",1
"18/12/09","23:30",0.0,3.3,87.9,1023.2,327.4,2.2,3.7,322.6,0.00,1.5,8.2,"23:28:16",1
"18/12/09","23:40",0.0,3.2,88.1,1023.2,309.4,2.3,3.4,321.0,0.00,1.5,8.2,"23:35:04",1
"18/12/09","23:50",0.0,3.1,88.3,1022.7,285.9,2.0,4.0,320.2,0.00,1.4,8.4,"23:45:28",1
"18/12/09","24:00",0.0,3.1,88.8,1023.2,301.9,2.5,4.0,318.1,0.00,1.5,8.2,"23:57:12",1
